TIME,DELAY(SENSOR),PRES,OXYGEN,RAWTEMP,T(OPTODE),TCPHASE,FLUOR,BETA(BETA700),BETA(BETA412),BETA(BETA440),CDOM,C(CSC),ED(ED412.40),ED(ED444.00),ED(ED489.70),ED(ED554.30),LU(LU411.80),LU(LU443.40),LU(LU489.60),LU(LU554.10),COMP,TILTX,TILTY,CHECK
1351395105,5807,841.1900024414062000,42.1268196105957000,657.7020874023438000,4.7035918235778810,54.6491889953613300,53,101,88,78,80,15166,2147752667,2147420891,2148011611,2147872950,2147642816,2147062601,2148254774,2147201782,2497,4,13,23940
1351398701,5810,908.6400146484375000,44.6352500915527340,663.9907226562500000,4.4965019226074220,54.3589401245117200,53,100,88,80,82,15166,2147754870,2147420681,2148009654,2147877760,2147642258,2147062866,2148262884,2147196608,135,4,13,18723
1351402301,5805,906.5000000000000000,44.9351310729980500,665.1362304687500000,4.4587330818176270,54.3306007385253900,53,100,87,79,81,14566,2147758756,2147419830,2148011227,2147872768,2147644882,2147066898,2148262409,2147199478,754,4,13,33616
1351405901,5807,945.0499877929688000,45.3642807006835940,666.4586791992188000,4.4151082038879395,54.2834892272949200,52,98,88,78,82,15165,2147754678,2147422683,2148012041,2147872493,2147642532,2147064795,2148266779,2147200914,238,4,13,46604
1351409501,5809,948.7100219726562000,45.0220298767089840,666.2136230468750000,4.4231948852539060,54.3305511474609400,53,100,84,79,82,15163,2147756187,2147420608,2148008228,2147875885,2147643126,2147059940,2148262180,2147196690,3274,4,13,29831
1351413101,5809,933.9199829101562000,45.6047401428222660,667.4569702148438000,4.3821659088134770,54.2578010559082000,52,101,89,80,80,15164,2147754569,2147420653,2148006491,2147876269,2147642889,2147061056,2148258633,2147198747,723,4,13,44080
1351416701,5808,963.7000122070312000,46.7229804992675800,670.3626708984375000,4.2862172126770020,54.1314201354980500,53,101,88,79,81,15160,2147755035,2147418240,2148007277,2147872164,2147647670,2147061211,2148258925,2147199332,329,4,13,52264
1351420301,5809,969.6400146484375000,47.3792800903320300,670.7711181640625000,4.2727241516113280,54.0486488342285160,53,101,88,79,82,15163,2147755648,2147421229,2148011748,2147876306,2147643620,2147062857,2148262144,2147197275,438,4,13,57483
1351423901,5806,976.7700195312500000,47.0123710632324200,670.3016967773438000,4.2882308959960940,54.0952987670898440,53,99,87,78,80,15165,2147755620,2147421476,2148008064,2147873627,2147644059,2147064036,2148255716,2147196361,204,4,13,19513
1351427501,5808,971.2299804687500000,46.9890899658203100,670.8049926757812000,4.2716012001037600,54.1034507751464840,53,98,86,80,81,15164,2147755593,2147421211,2148009161,2147877302,2147645366,2147062061,2148260013,2147200155,169,4,13,53720
1351431101,5812,968.8699951171875000,47.7488708496093750,671.5866699218750000,4.2457699775695800,54.0037994384765600,52,100,88,79,80,15158,2147753728,2147421805,2148010176,2147873353,2147641042,2147062875,2148260443,2147197613,3570,4,13,39937
1351434701,5808,975.0100097656250000,47.6447105407714840,672.4667968750000000,4.2166748046875000,54.0304603576660160,53,97,83,79,81,15162,2147755830,2147423067,2148008932,2147872000,2147644937,2147061760,2148256987,2147200301,2959,4,13,20593
1351438301,5805,979.0000000000000000,46.8790893554687500,671.1495971679688000,4.2602138519287110,54.1204490661621100,53,97,87,79,82,15162,2147754706,2147418971,2148009856,2147874413,2147645284,2147059126,2148263305,2147199981,505,4,13,29171
1351441901,5809,973.0900268554688000,47.0227088928222660,671.5784301757812000,4.2460417747497560,54.1030693054199200,52,101,90,79,80,15164,2147759094,2147418962,2148012553,2147875638,2147643236,2147063762,2148255222,2147198089,3541,4,13,22661
1351445501,5810,969.8599853515625000,47.4022102355957000,672.9306030273438000,4.2013401985168460,54.0693283081054700,52,98,86,80,82,15157,2147754752,2147422317,2148008256,2147875648,2147644717,2147061165,2148262573,2147198034,95,5,13,59298
1351449101,5809,970.2399902343750000,47.9367599487304700,673.1390991210938000,4.1944451332092285,53.9951210021972660,53,100,88,80,80,15157,2147756379,2147421010,2148010496,2147875483,2147641645,2147059949,2148264246,2147196626,377,5,13,53483
1351452701,5808,982.7299804687500000,47.6558303833007800,671.6583251953125000,4.2434020042419430,54.0205802917480500,53,98,86,79,81,15157,2147757065,2147418752,2148008100,2147873408,2147642843,2147054656,2148257161,2147201289,514,4,13,31611
1351456301,5806,971.2800292968750000,47.1443901062011700,672.7384033203125000,4.2076950073242190,54.1036109924316400,53,100,87,79,80,15157,2147756123,2147422363,2148004068,2147874752,2147643776,2147059821,2148261449,2147198537,3366,4,13,55734
1351459901,5804,970.4099731445312000,47.0887603759765600,672.7822265625000000,4.2062468528747560,54.1100311279296900,53,100,80,79,82,15157,2147754660,2147419949,2148009645,2147872896,2147643629,2147061888,2148261924,2147196800,126,4,13,19880
1351463501,5809,978.4500122070312000,47.2607994079589840,673.3928222656250000,4.1860561370849610,54.0957298278808600,52,98,84,80,82,15156,2147756278,2147420032,2148009197,2147875209,2147644745,2147060434,2148263012,2147197421,149,4,13,20095
1351467101,5810,981.3699951171875000,46.9705085754394500,671.5064697265625000,4.2484188079833980,54.1103401184082000,52,98,86,79,82,15156,2147755821,2147421165,2148007890,2147873334,2147642660,2147063149,2148264457,2147199670,130,5,13,33358
1351470701,5806,974.5000000000000000,47.0077896118164060,671.8795776367188000,4.2360858917236330,54.1095199584960940,52,97,86,78,81,15155,2147757979,2147419483,2148008676,2147871387,2147644416,2147070244,2148259547,2147198226,242,4,13,55699
1351474301,5808,980.1099853515625000,47.5418395996093750,672.8825073242188000,4.2029299736022950,54.0446014404296900,52,97,89,79,81,15155,2147753298,2147420324,2148007076,2147876461,2147646537,2147063890,2148263250,2147195574,3035,4,13,60457
1351477901,5809,972.7299804687500000,47.3562202453613300,673.3765869140625000,4.1865921020507810,54.0829200744628900,52,98,92,80,81,15156,2147755309,2147420507,2148005659,2147874112,2147645110,2147063552,2148260891,2147196059,574,4,13,63889
1351481501,5811,983.3900146484375000,47.8912506103515600,672.9259033203125000,4.2014961242675780,54.0009307861328100,53,100,86,79,80,15151,2147755465,2147419876,2148008448,2147876434,2147639579,2147062171,2148255872,2147196324,2868,4,13,5584
1351485101,5807,982.9199829101562000,46.8727798461914060,671.9542846679688000,4.2336201667785645,54.1305007934570300,53,99,86,79,82,15153,2147755072,2147418788,2148008914,2147873526,2147642934,2147061001,2148262482,2147198976,66,4,13,20136
1351488701,5809,981.6699829101562000,46.8541488647460940,671.5444946289062000,4.2471637725830080,54.1301307678222660,53,97,86,79,81,15150,2147754413,2147421824,2148011044,2147876306,2147644160,2147059401,2148260406,2147198884,472,4,13,57083
1351492301,5805,983.7500000000000000,46.8172416687011700,670.3591918945312000,4.2863311767578125,54.1170387268066400,51,98,84,80,81,15153,2147755008,2147421376,2148009645,2147875053,2147645110,2147056786,2148254528,2147198336,3476,4,13,37631
1351495901,5812,986.7500000000000000,46.5694999694824200,670.3264160156250000,4.2874159812927250,54.1553306579589840,52,99,88,80,81,15150,2147757403,2147422784,2148009453,2147871277,2147644397,2147060169,2148262336,2147198409,73,5,13,5006
1351499501,5812,988.7500000000000000,46.6812782287597660,670.9943847656250000,4.2653431892395020,54.1491813659668000,52,99,91,78,81,15147,2147761444,2147420114,2148009024,2147872923,2147644672,2147056758,2148262985,2147199195,92,5,13,36558
1351503101,5807,985.1900024414062000,46.3127288818359400,670.3427734375000000,4.2868747711181640,54.1933898925781250,52,99,88,79,81,15146,2147760813,2147422354,2148008621,2147868800,2147643254,2147063771,2148261037,2147197504,363,4,13,47721
1351506701,5808,985.9400024414062000,46.7479591369628900,672.5559082031250000,4.2137298583984375,54.1542205810546900,53,98,86,78,81,15145,2147757412,2147418752,2148005156,2147871478,2147643145,2147061156,2148262701,2147200978,154,4,13,14843
1351510301,5809,993.4899902343750000,47.1550903320312500,670.3464965820312000,4.2867507934570310,54.0760612487793000,53,98,91,80,82,15145,2147758985,2147424082,2148006372,2147873645,2147645275,2147062592,2148257691,2147197613,5,4,13,958
1351513901,5808,983.7999877929688000,46.5881004333496100,671.0430908203125000,4.2637329101562500,54.1595001220703100,52,100,87,79,81,15145,2147754916,2147420525,2148011620,2147875108,2147642066,2147064777,2148263936,2147200448,136,4,13,2652
1351517501,5808,973.3699951171875000,47.1158714294433600,672.8701782226562000,4.2033371925354000,54.1104011535644500,52,99,88,80,82,15148,2147758262,2147421577,2148008987,2147874267,2147644836,2147061202,2148261156,2147201088,449,5,13,27113
1351521101,5807,979.5399780273438000,47.9148902893066400,673.5131835937500000,4.1820740699768070,54.0043106079101560,52,98,89,79,80,15143,2147756745,2147422482,2148004854,2147874998,2147644480,2147062793,2148265362,2147199177,3291,4,13,52112
1351524701,5810,989.8800048828125000,47.5626983642578100,672.8203735351562000,4.2049851417541500,54.0459098815918000,53,100,87,79,81,15143,2147754989,2147422784,2148008000,2147872859,2147645741,2147062491,2148259858,2147199744,3378,4,13,25763
1351528301,5810,988.2000122070312000,47.1065902709960940,671.6635131835938000,4.2432289123535160,54.0932807922363300,52,98,87,78,81,15140,2147755209,2147420845,2148009005,2147874715,2147639296,2147062308,2148262582,2147200246,60,5,13,38299
1351531901,5808,980.3400268554688000,46.9521903991699200,672.8485717773438000,4.2040538787841800,54.1346206665039060,54,99,89,80,82,15123,2147755821,2147421906,2148007872,2147873856,2147644086,2147064320,2148262372,2147193682,227,4,13,39000
1351535501,5810,988.8699951171875000,47.2756118774414060,671.9586181640625000,4.2334771156311035,54.0739784240722660,53,98,87,78,81,15073,2147756717,2147423104,2148009837,2147871341,2147643529,2147060416,2148263533,2147197851,2,4,13,13084
1351539101,5811,988.2899780273438000,47.1058807373046900,673.2072753906250000,4.1921877861022950,54.1117210388183600,52,98,87,81,82,15076,2147756352,2147418971,2148008987,2147872658,2147645586,2147055881,2148262107,2147196452,347,4,13,56781
1351539656,5809,991.5700073242188000,47.7486915588378900,673.1694946289062000,4.1934390068054200,54.0243797302246100,53,98,86,79,82,15152,2147758528,2147420818,2148008676,2147871268,2147642368,2147056978,2148259364,2147199186,2,4,13,26544
